CZ-6A DEB

Satellite information

Favourite Embed

Satellite Type and Status

DEBRISIN ORBIT

Key statistics

Satellite CZ-6A DEB at a glance.

Uptime

452

Days in orbit

Revolutions

≈ 14.1

Per day

Orbit

LEO

Low Earth Orbit

Inclination

88.9

Latest

Satellite identification and parameters

Extended collection of information and parameters for CZ-6A DEB.

Object identification

Identified? True

Debris? True

Object name: CZ-6A DEB

International designator: 2024-140SX

Object number (NORAD): 61286

Object ID (CCSDS): 61286

Country: PEOPLES REPUBLIC OF CHINA (PRC)

Current information (Y/N): Y

RCS size: SMALL

Orbital parameters

Period: 102.161 minutes

Inclination: 88.8653 deg

SMA: 7239.09 km

Apoapsis: 932.253 km

Periapsis: 789.658 km

RAAN: 294.7086 deg

Eccentricy: 0.00984896

Argument of periapsis: 242.5471 deg

Mean anomaly: 116.5672 deg

Mean motion: 14.0953793 rev/day

Mean motion (dot): 0.00004455 rev/day2

B* drag term: 0.0024290783 1/REarth

Two-line elements (TLE)

Creation date: Oct. 31, 2025, 10:10 a.m.

Reference frame: TEME

Reference center: EARTH

Epoch: Oct. 30, 2025, 10:14 p.m. UTC

TLE line 0: 0 CZ-6A DEB

TLE line 1: 1 61286U 24140SX 25303.92690158 .00004455 00000-0 24291-2 0 9995

TLE line 2: 2 61286 88.8653 294.7086 0098490 242.5471 116.5672 14.09537930 60470

Live tracking on map

Real-time ground track for satellite CZ-6A DEB.

In-orbit conjunctions

A list of the most updated potential collisions computed for object CZ-6A DEB.

Target Orbit TCA Probability of collision Miss distance Type
COSMOS 972 LEO 2025-10-04 16:52:03 0.0001346292 172.0 (m) PAYLOAD
COSMOS 1275 DEB LEO 2025-01-28 16:51:43 0.0001201984 326.0 (m) DEBRIS
DELTA 1 DEB SSO 2025-01-08 00:31:06 0.0009421096 400.0 (m) DEBRIS

Associated space launch

18 Low Earth Orbit communication satellites with Ku, Q and V band payloads for the G60 constellation operated by Shanghai Spacecom Satellite Technology (SSST) with funding backed by the Shanghai local government. Initial constellation will consist of 1296 satellites by 2027 with long term plans to expand it to 12000 satellites.

CZ-6A DEB was lifted into orbit during the mission ‘Long March 6A | G60 Polar Group 01’, on board a Long March 6A space rocket.

The launch took place on Aug. 6, 2024, 6:42 a.m. from Launch Complex 9A.

For more information about the launch, click the button.

Launch to space Long March 6A | G60 Polar Group 01
Long March 6A | G60 Polar Group 01

Agency: N/A

Status: Launch Successful

Launch date: Aug. 6, 2024, 6:42 a.m. UTC

Rocket: Long March 6A

Launch pad: Launch Complex 9A

Location: Taiyuan Satellite Launch Center, People's Republic of China

...

Latest news about this satellite

News about space launch
Brightness of first Chinese broadband constellation satellites alarms astronomers

The first satellites of a Chinese broadband constellation are significantly brighter than those of Western systems, posing a new challenge for astronomers.

News about space launch
Chinese rocket stage breaks up into cloud of more than 700 pieces of space debris

HELSINKI — A Chinese Long March 6A rocket’s upper stage has fragmented into a cloud of over 700 pieces of space debris, adding to concerns about long-term orbital safety. China […]

News about space launch
China's Thousand Sails Megaconstellation Kicks Off with Dangerous Debris Field

China's Thousand Sails Megaconstellation Kicks Off with Dangerous Debris Field


Newsletter sign-up

Weekly statistics, charts and insights to help you stay on top of the space industry.